This demonstration page uses our WeatherBlox Daily Observations layout. Learn more.

Left ArrowRight Arrow

Hourly Observations for January 10, 2022

Temp ( °F °C ) Dew Point ( °F °C ) Humidity (%) Winds ( mph kmh ) Pressure ( in mb ) Visibility ( mi km ) Precip ( " mm )
12:53 am 00:53 Mostly Cloudy 39 3.9 22 -5.6 50 50 N 7 11 30.58 1036 10 16 0.00 0.00
1:53 am 01:53 Mostly Cloudy 37 2.8 21 -6.1 52 52 N 9 15 30.60 1036 10 16 0.00 0.00
2:53 am 02:53 Cloudy 37 2.8 21 -6.1 52 52 N 8 13 30.61 1037 10 16 0.00 0.00
3:53 am 03:53 Mostly Cloudy 36 2.2 21 -6.1 55 55 N 9 15 30.61 1037 10 16 0.00 0.00
4:53 am 04:53 Mostly Cloudy 34 1.1 21 -6.1 59 59 NNW 8 13 30.63 1037 10 16 0.00 0.00
5:53 am 05:53 Mostly Cloudy 32 0 21 -6.1 64 64 NNW 6 9 30.65 1038 10 16 0.00 0.00
6:53 am 06:53 Mostly Cloudy 32 0 22 -5.6 66 66 NNW 6 9 30.67 1039 10 16 0.00 0.00
7:53 am 07:53 Mostly Cloudy 32 0 22 -5.6 66 66 NW 7 11 30.68 1039 10 16 0.00 0.00
8:53 am 08:53 Partly Cloudy 35 1.7 22 -5.6 59 59 VRB 6 9 30.71 1040 10 16 0.00 0.00
9:53 am 09:53 Mostly Sunny 40 4.4 23 -5 51 51 VRB 7 11 30.73 1041 10 16 0.00 0.00
10:53 am 10:53 Partly Cloudy 44 6.7 21 -6.1 40 40 VRB 5 7 30.73 1041 10 16 0.00 0.00
11:53 am 11:53 Mostly Sunny 49 9.4 19 -7.2 31 31 NNE 6 9 30.70 1040 10 16 0.00 0.00
12:53 pm 12:53 Mostly Sunny 51 10.6 19 -7.2 28 28 NW 9 15 30.66 1038 10 16 0.00 0.00
1:53 pm 13:53 Partly Cloudy 52 11.1 17 -8.3 25 25 NW 12 19 30.63 1037 10 16 0.00 0.00
2:53 pm 14:53 Partly Cloudy 54 12.2 17 -8.3 23 23 NNW 8 13 30.61 1037 10 16 0.00 0.00
3:53 pm 15:53 Partly Cloudy 53 11.7 18 -7.8 25 25 NNW 5 7 30.60 1036 10 16 0.00 0.00
4:53 pm 16:53 Mostly Sunny 53 11.7 18 -7.8 25 25 N 7 11 30.60 1036 10 16 0.00 0.00
5:53 pm 17:53 Mostly Clear 50 10 19 -7.2 29 29 N 5 7 30.60 1036 10 16 0.00 0.00
6:53 pm 18:53 Mostly Clear 49 9.4 19 -7.2 31 31 NNW 6 9 30.60 1036 10 16 0.00 0.00
7:53 pm 19:53 Clear 46 7.8 22 -5.6 38 38 VRB 5 7 30.60 1036 10 16 0.00 0.00
8:53 pm 20:53 Mostly Clear 41 5 24 -4.4 51 51 Calm 30.60 1036 10 16 0.00 0.00
9:53 pm 21:53 Mostly Clear 39 3.9 25 -3.9 57 57 Calm 30.60 1036 10 16 0.00 0.00
10:53 pm 22:53 Mostly Clear 41 5 24 -4.4 51 51 Calm 30.60 1036 10 16 0.00 0.00
11:53 pm 23:53 Mostly Clear 34 1.1 25 -3.9 70 70 Calm 30.58 1036 10 16 0.00 0.00

Powered by AerisWeather